Tracking 29487 objects as of 11-Sep-2024
HD Live streaming from Space Station
objects crossing your sky now

SITRO-AIS-30

Track SITRO-AIS-30 now!
10-day predictions
SITRO-AIS-30 is classified as:


NORAD ID: 59053
Int'l Code: 2024-039C
Perigee: 463.3 km
Apogee: 478.9 km
Inclination: 97.4 °
Period: 93.9 minutes
Semi major axis: 6842 km
RCS: Unknown
Launch date: February 29, 2024
Source: (TBD)
Launch site: VOSTOCHNY COSMODROME (VOSTO)

Uplink (MHz):
Downlink (MHz): 401.020
Beacon (MHz):
Mode: 2k4 GMSK_USP
Call sign:
Status: Unknown

Your satellite tracking list
Your tracking list is empty




NASA's NSSDC Master Catalog

Two Line Element Set (TLE):
1 59053U 24039C   24254.88429309  .00057215  00000-0  17288-2 0  9998
2 59053  97.3980 216.5196 0011398 268.8812  91.1125 15.33974348 29699
Source of the keplerian elements: AFSPC